| time (UTC) | temp C | wind direction | speed KPH | gust KPH | rain 1hr cm | rain 24hr cm | rain mn cm | humidity % | barometer mb |
| 20260503174613 | 13 | 217 | 3.2 | 6.4 | 0.00 | 0.00 | 0.00 | 70 | 1023.9 |
| 20260503173032 | 14 | 283 | 4.8 | 11.3 | 0.00 | 0.00 | 0.00 | 70 | 1024.2 |
| 20260503171725 | 14 | 55 | 4.8 | 14.5 | 0.00 | 0.00 | 0.00 | 70 | 1024.2 |
| 20260503170333 | 13 | 153 | 3.2 | 6.4 | 0.00 | 0.00 | 0.00 | 70 | 1024.4 |
| 20260503140149 | 13 | 180 | 0.0 | 1.6 | 0.00 | 0.00 | 0.00 | 65 | 1023.8 |
| 20260503081611 | 22 | 329 | 6.4 | 22.5 | 0.00 | 0.00 | 0.00 | 42 | 1021.4 |
| 20260503081527 | 22 | 329 | 6.4 | 22.5 | 0.00 | 0.00 | 0.00 | 42 | 1021.4 |
| 20260503071528 | 23 | 98 | 6.4 | 17.7 | 0.00 | 0.00 | 0.00 | 39 | 1021.4 |
| 20260503070118 | 23 | 171 | 8.0 | 19.3 | 0.00 | 0.00 | 0.00 | 38 | 1021.5 |
| 20260503054537 | 24 | 28 | 6.4 | 19.3 | 0.00 | 0.00 | 0.00 | 38 | 1022.1 |
| 20260503053055 | 23 | 344 | 9.7 | 20.9 | 0.00 | 0.00 | 0.00 | 37 | 1022.1 |
| 20260503051616 | 23 | 46 | 8.0 | 16.1 | 0.00 | 0.00 | 0.00 | 39 | 1022.2 |
| 20260503050034 | 23 | 338 | 9.7 | 19.3 | 0.00 | 0.00 | 0.00 | 39 | 1022.4 |
| 20260503044533 | 23 | 155 | 9.7 | 24.1 | 0.00 | 0.00 | 0.00 | 40 | 1022.7 |
| 20260503043039 | 22 | 155 | 4.8 | 14.5 | 0.00 | 0.00 | 0.00 | 41 | 1022.7 |
| 20260503041530 | 22 | 93 | 4.8 | 14.5 | 0.00 | 0.00 | 0.00 | 42 | 1023.0 |
| 20260503040029 | 21 | 338 | 8.0 | 16.1 | 0.00 | 0.00 | 0.00 | 43 | 1023.6 |
| 20260503034528 | 21 | 320 | 11.3 | 20.9 | 0.00 | 0.00 | 0.00 | 43 | 1023.9 |
| 20260503033035 | 21 | 51 | 8.0 | 16.1 | 0.00 | 0.00 | 0.00 | 45 | 1023.9 |
| 20260503031544 | 20 | 115 | 9.7 | 20.9 | 0.00 | 0.00 | 0.00 | 46 | 1024.1 |
| 20260503030109 | 20 | 321 | 12.9 | 22.5 | 0.00 | 0.00 | 0.00 | 46 | 1024.3 |
| 20260503024627 | 20 | 73 | 6.4 | 20.9 | 0.00 | 0.00 | 0.00 | 48 | 1024.5 |
| 20260503024536 | 20 | 73 | 6.4 | 20.9 | 0.00 | 0.00 | 0.00 | 48 | 1024.5 |
| 20260503023030 | 19 | 306 | 11.3 | 17.7 | 0.00 | 0.00 | 0.00 | 50 | 1024.7 |
| 20260503021541 | 18 | 317 | 8.0 | 20.9 | 0.00 | 0.00 | 0.00 | 52 | 1024.8 |
| 20260503020034 | 17 | 59 | 8.0 | 14.5 | 0.00 | 0.00 | 0.00 | 55 | 1025.3 |
| 20260503014530 | 16 | 63 | 6.4 | 14.5 | 0.00 | 0.00 | 0.00 | 60 | 1025.2 |
| 20260503013030 | 16 | 58 | 6.4 | 16.1 | 0.00 | 0.00 | 0.00 | 63 | 1025.2 |
| 20260503011528 | 15 | 337 | 6.4 | 17.7 | 0.00 | 0.00 | 0.00 | 66 | 1025.2 |
| 20260503010028 | 13 | 131 | 8.0 | 16.1 | 0.00 | 0.00 | 0.00 | 69 | 1025.1 |
| 20260503004528 | 12 | 348 | 4.8 | 9.7 | 0.00 | 0.00 | 0.00 | 73 | 1025.0 |
| 20260503003046 | 12 | 183 | 4.8 | 11.3 | 0.00 | 0.00 | 0.00 | 74 | 1025.0 |
| 20260503001528 | 11 | 328 | 3.2 | 11.3 | 0.00 | 0.00 | 0.00 | 76 | 1025.0 |
| 20260503000028 | 10 | 157 | 0.0 | 1.6 | 0.00 | 0.00 | 0.00 | 79 | 1024.8 |
| 20260502234530 | 9 | 157 | 0.0 | 1.6 | 0.00 | 0.00 | 0.00 | 81 | 1024.6 |
| 20260502233030 | 8 | 157 | 0.0 | 1.6 | 0.00 | 0.00 | 0.00 | 82 | 1024.6 |
| 20260502231531 | 7 | 0 | 0.0 | 1.6 | 0.00 | 0.00 | 0.00 | 82 | 1024.3 |
| 20260502230030 | 7 | 0 | 0.0 | 0.0 | 0.00 | 0.00 | 0.00 | 81 | 1024.2 |
| 20260502224707 | 7 | 0 | 0.0 | 0.0 | 0.00 | 0.00 | 0.00 | 81 | 1024.1 |
| 20260502223030 | 7 | 0 | 0.0 | 0.0 | 0.00 | 0.00 | 0.00 | 81 | 1024.0 |
| 20260502221529 | 7 | 0 | 0.0 | 0.0 | 0.00 | 0.00 | 0.00 | 80 | 1024.0 |
| 20260502220031 | 7 | 0 | 0.0 | 0.0 | 0.00 | 0.00 | 0.00 | 79 | 1023.9 |
| 20260502214527 | 7 | 0 | 0.0 | 0.0 | 0.00 | 0.00 | 0.00 | 79 | 1023.9 |
| 20260502213036 | 7 | 0 | 0.0 | 0.0 | 0.00 | 0.00 | 0.00 | 78 | 1023.7 |
| 20260502211530 | 8 | 0 | 0.0 | 0.0 | 0.00 | 0.00 | 0.00 | 78 | 1023.7 |
| 20260502210029 | 8 | 0 | 0.0 | 0.0 | 0.00 | 0.00 | 0.00 | 78 | 1023.6 |
| 20260502204631 | 8 | 0 | 0.0 | 0.0 | 0.00 | 0.00 | 0.00 | 78 | 1023.5 |
| 20260502204545 | 8 | 0 | 0.0 | 0.0 | 0.00 | 0.00 | 0.00 | 78 | 1023.5 |
| 20260502203042 | 8 | 0 | 0.0 | 0.0 | 0.00 | 0.00 | 0.00 | 78 | 1023.5 |
| 20260502201528 | 8 | 0 | 0.0 | 0.0 | 0.00 | 0.00 | 0.00 | 76 | 1023.5 |
| 20260502200051 | 9 | 0 | 0.0 | 0.0 | 0.00 | 0.00 | 0.00 | 76 | 1023.5 |
| 20260502194527 | 9 | 0 | 0.0 | 0.0 | 0.00 | 0.00 | 0.00 | 76 | 1023.4 |
| 20260502193028 | 10 | 157 | 0.0 | 3.2 | 0.00 | 0.00 | 0.00 | 76 | 1023.4 |
| 20260502191527 | 9 | 157 | 0.0 | 1.6 | 0.00 | 0.00 | 0.00 | 77 | 1023.5 |
| 20260502190028 | 9 | 0 | 0.0 | 1.6 | 0.00 | 0.00 | 0.00 | 77 | 1023.5 |
| 20260502184531 | 8 | 0 | 0.0 | 3.2 | 0.00 | 0.00 | 0.00 | 79 | 1023.5 |
| 20260502183036 | 8 | 0 | 0.0 | 0.0 | 0.00 | 0.00 | 0.00 | 80 | 1023.5 |
| 20260502181530 | 7 | 0 | 0.0 | 0.0 | 0.00 | 0.00 | 0.00 | 78 | 1023.5 |